www.pogodaiklimat.ru

Погода и климат >> Архив погоды >> Киргизия >> Кара-Балта


ПОГОДА в Кара-Балте

  • Прогноз погоды в Кара-Балте
  • Монитор погоды в Кара-Балте

АРХИВ ПОГОДЫ в Кара-Балте

Время (UTC), дата Ветер
(напр.,м/с)
 
Видим.   Явления Облачность Т
(С)
Тd
(С)
f
(%)
Тe
(С)
Тes
(С)
Комфортность P
(гПа)
Po
(гПа)
Тmin
(С)
Tmax
(С)
R
(мм)
R24
(мм)
S
(см)
21 16.08 штиль 0 н/о 9/9 600 м
[Sc]
+17.6 +6.8 49 +18 +18 1012.1 924.4
00 17.08 50 км н/о +15.1 +8.0 63 +15 +15 1002.9 923.4
03 17.08 З 2 50 км в посл. час ливневой дождь 10/10 600 м
[Cb cap]
+15.8 +11.5 76 +16 +16 1013.8 925.6 +15.1 0.0
06 17.08 В 2 20 км в посл. час гроза 10/10 600 м
[Cb cap]
+17.8 +8.2 53 +18 +18 1014.2 926.4
09 17.08 СВ 2 50 км {ливн. осадки} 9/8 600 м
[Cb cap Ci]
+22.0 +6.8 37 +23 +25 комфорт 1012.1 925.6
12 17.08 В 2 50 км {ливн. осадки} 6/3 600 м
[Cb cap Ci]
+22.8 +6.4 35 +23 +25 комфорт 1011.9 925.7
15 17.08 Ю 2 50 км 4/0
[Ac trans]
+18.4 +11.3 63 +19 +19 1013.1 925.7 +23.3 2
18 17.08 ЮВ 2 н/о ясно +15.6 +10.0 69 +16 +16 1013.2 924.9 2
21 17.08 Ю 2 н/о ясно +14.8 +8.6 66 +15 +15 1011.7 923.3
00 18.08 Ю 2 50 км 3/1 1000 м
[Cu med, cong Ci fib]
+14.9 +6.7 58 +15 +15 1011.7 923.3
03 18.08 З 2 50 км 9/0
[Ac und Ci]
+21.0 +5.8 37 +23 +26 комфорт 1011.4 924.7 +14.8
06 18.08 СВ 2 50 км 9/3 1000 м
[Cu med, cong Ci]
+24.3 +7.7 35 +25 +33 комфорт 1010.4 924.8
09 18.08 СЗ 2 50 км 9/3 600 м
[Cb cap Ci]
+25.0 +4.1 26 +24 +32 комфорт 1010.7 925.1
12 18.08 С 2 50 км 9/3 600 м
[Cu med, cong Ci]
+26.8 +4.6 24 +26 +27 жарко 1010.7 925.7
15 18.08 Ю 2 50 км 3/0
[Ac trans]
+21.3 +7.4 41 +22 +22 комфорт 1013.9 927.1 +26.9
18 18.08 Ю 2 н/о 1/0
[Ac trans]
+18.9 +5.1 40 +20 +20 1015.3 927.7
21 18.08 Ю 2 н/о 1/0
[Ci fib]
+18.0 +4.1 40 +19 +19 1015.4 927.5
00 19.08 Ю 2 50 км 3/0
[Ac trans]
+17.8 +3.0 37 +18 +18 1015.6 927.6
03 19.08 С 2 50 км 9/4 1000 м
[Cu med, cong Ci]
+21.8 +7.3 39 +23 +25 комфорт 1015.3 928.5 +17.5
06 19.08 СЗ 2 50 км 6/4 1000 м
[Cu med, cong Ci]
+24.4 +7.3 33 +25 +33 комфорт 1014.5 928.4
09 19.08 С 2 50 км 8/6 1000 м
[Cb cap Ci]
+27.4 +5.6 25 +26 +31 жарко 1013.4 928.3
12 19.08 З 2 50 км 6/4 1000 м
[Cu med, cong Ci]
+27.0 +5.3 25 +26 +27 жарко 1013.6 928.4
15 19.08 Ю 2 50 км 3/0
[Ci fib]
+21.6 +8.8 44 +23 +23 комфорт 1016.2 929.3 +27.6
18 19.08 Ю 2 н/о ясно +19.0 +6.7 45 +20 +20 1017.0 929.3
21 19.08 З 2 н/о ясно +17.6 +4.6 42 +18 +18 1016.6 928.5
00 20.08 Ю 2 50 км ясно +15.7 +5.9 52 +16 +16 1018.0 929.2
03 20.08 В 2 50 км ясно +24.0 +6.4 32 +24 +29 комфорт 1014.8 928.7 +15.7
06 20.08 С 4 50 км 8/0
[Ci]
+27.3 +9.2 32 +27 +36 жарко 1013.8 928.7
09 20.08 СВ 4 50 км 8/0
[Ci]
+28.6 +3.8 20 +27 +34 жарко 1012.9 928.1
12 20.08 С 2 50 км 4/0
[Ci fib]
+29.2 +4.0 20 +27 +30 жарко 1012.8 928.1
15 20.08 ЮВ 2 50 км 3/0
[Ci fib]
+22.6 +12.4 52 +25 +25 комфорт 1014.5 928.1 +29.3
18 20.08 штиль 0 н/о 3/0
[Ci fib]
+20.0 +8.5 47 +21 +21 комфорт 1014.5 927.3
21 20.08 ЮВ 2 н/о ясно +18.6 +5.2 41 +19 +19 1015.2 927.7
03 21.08 З 2 50 км ясно +24.4 +6.4 31 +24 +29 комфорт 1011.4 925.7 +18.6
09 21.08 В 2 50 км 1/1 1000 м
[Cu med, cong]
+29.8 +4.8 20 +28 +39 жарко 1008.4 924.9
12 21.08 СВ 2 50 км 3/1 1000 м
[Cu med, cong Ci fib]
+30.3 +5.8 21 +29 +31 жарко 1007.7 923.9
15 21.08 З 2 н/о 3/0
[Ci fib]
+25.9 +6.7 29 +26 +26 жарко 1009.3 924.1 +31.2
18 21.08 Ю 2 н/о 4/0
[Ci fib]
+22.4 +4.8 32 +23 +23 комфорт 1009.6 923.5
21 21.08 ЮЗ 2 н/о 1/0
[Ci fib]
+19.4 +5.6 40 +21 +21 комфорт 1009.7 922.7
00 22.08 Ю 2 50 км 6/0
[Ci]
+18.6 +5.8 43 +19 +19 1009.4 922.2
03 22.08 З 2 50 км ясно +25.8 +17.0 58 +30 +35 душно 1007.0 922.0
06 22.08 С 2 50 км 1/1 1000 м
[Cu med, cong]
+29.8 +7.9 25 +29 +42 жарко 1005.1 921.4
09 22.08 З 4 50 км 3/3 1000 м
[Cu med, cong]
+32.5 +5.0 18 +30 +36 жарко 1003.7 920.8
12 22.08 З 2 50 км 8/8 1000 м
[Cu med, cong]
+31.3 +3.8 18 +29 +30 жарко 1004.5 921.1
15 22.08 Ю 2 н/о в посл. час ливневой дождь 9/9 600 м
[]
+25.8 +11.0 39 +27 +27 жарко 1007.8 922.9 +33.5 0.3
18 22.08 Ю 2 н/о {ливн. осадки} ясно +20.4 +12.2 59 +23 +23 комфорт 1009.5 922.7 0.3
21 22.08 Ю 2 н/о 1/0
[Ci fib]
+18.4 +11.4 64 +19 +19 1009.7 922.6
03 23.08 СЗ 2 50 км 6/0
[Ci]
+21.3 +10.0 48 +23 +27 комфорт 1009.1 922.8 +17.5
15 23.08 Ю 4 н/о {гроза} 10/10 600 м
[Cb cap]
+19.2 +11.8 62 +20 +20 1011.3 924.3 +28.0 2

 

Местоположение метеостанции Кара-Балта (Чуйская область, Киргизия): широта 42.80 долгота 73.82 высота над уровнем моря 771 м.

В архиве по умолчанию представлена погода в Кара-Балте за последнюю неделю. Архивные данные за месяц целиком и за предыдущие месяцы, начиная с января 2011 года, Вы можете получить, выбрав интересующий диапазон дат из раскрывающегося списка и нажав кнопку "Ввод!".


*Определитесь, кто Вы:
робот инопланетянин человек

Внимание! Время в таблицах - всемирное. Для получения местного времени необходимо прибавить поправку, которая равна 5 ч.

Смотрите также архив погоды в соседних городах и на ближайших метеорологических станциях:

Погода в Яны-Жере (Чуйская область, Киргизия) (27 км)
Погода в Тео-Ашуу (Чуйская область, Киргизия) (36 км)
Погода в Мерке (Жамбылская область, Казахстан) (53 км)
Погода в Байтике (Чуйская область, Киргизия) (58 км)
Погода в Бишкеке (город Бишкек, Киргизия) (58 км)
Погода в Бериктасе (Жамбылская область, Казахстан) (71 км)
Погода в Сусамыре (Чуйская область, Киргизия) (73 км)
Погода в Иссык-Ате (город Бишкек, Киргизия) (86 км)
Погода в Кулане (Жамбылская область, Казахстан) (89 км)
Погода в Толе Би (Жамбылская область, Казахстан) (100 км)

Пояснения к столбцам:

Ветер - указаны скорость ветра в м/с - средняя за 10 мин, порывы в срок и между сроками (в фигурных скобках) и направление, откуда дует ветер: С - северный, СВ - северо-восточный, В - восточный, ЮВ - юго-восточный, Ю - южный, ЮЗ - юго-западный, З - западный, СЗ - северо-западный.
Видимость - горизонтальная дальность видимости в метрах или километрах. При видимости от 1 до 10 км при отсутствии осадков обычно наблюдается дымка, при ухудшении видимости до 1 км и менее - туман. В сухую погоду видимость может ухудшаться дымом, пылью или мглою.
Явления - указаны атмосферные явления, наблюдавшиеся в срок или в последний час перед сроком; фигурными скобками обозначены явления, наблюдавшиеся между сроками (за 1-3 часа до срока); квадратными скобками обозначены град или гололедные отложения с указанием их диаметра в мм.
Облачность - указаны через наклонную черту общая и нижняя облачность в баллах и высота нижней границы облаков в метрах; квадратными скобками обозначены формы облаков: Ci - перистые, Cs - перисто-слоистые, Cc - перисто-кучевые, Ac - высококучевые, As - высокослоистые, Sc - слоисто-кучевые, Ns - слоисто-дождевые, Cu - кучевые, Cb - кучево-дождевые. Подробнее классификацию облаков см. в Атласе облаков (PDF).
T - Температура воздуха - температура, измеренная на высоте 2 м над землей.
Td - Температура точки росы - температура, при понижении до которой содержащийся в воздухе водяной пар достигнет насыщения.
f - Относительная влажность воздуха - влажноcть воздуха, измеренная на высоте 2 м над землей.
Te - Эффективная температура - температура, которую ощущает одетый по сезону человек в тени. Характеристика душности погоды. При расчете учитывается влияние влажности воздуха и скорости ветра на теплоощущения человека.
Tes - Эффективная температура на солнце - температура, которую ощущает человек, с поправкой на солнечный нагрев. Характеристика знойности погоды. Зависит от высоты солнца над горизонтом, облачности и скорости ветра. Ночью, в пасмурную погоду, а также при ветре 12 м/с и более поправка равна нулю.
P - Атмосферное давление - приведенное к уровню моря атмосферное давление.
Po - Атмосферное давление - измеренное на уровне метеостанции атмосферное давление.
Tmin - Минимальная температура - минимум температуры воздуха на высоте 2 м над землей.
Tmax - Максимальная температура - максимум температуры воздуха на высоте 2 м над землей.
R - Количество осадков - Количество выпавших осадков за период времени, мм. При наведении курсора мыши на число - период времени, за который выпало указанное количество осадков.
R24 - Количество осадков - Количество выпавших осадков за 24 часа, мм.
S - Снежный покров - Высота снежного покрова, см. При наведении курсора мыши на число - состояние снежного покрова и степень покрытия местности в баллах.